Location: Nairn
(57.5833°N, 3.8667°W)
Time: 03:18:28
(UTC+00:00)

Cosmos 2026 Rocket - Pass Details

Date: 07 August 2020
Orbit: 940 x 1000 km, 82.9° (Epoch: 25 September)

Event Time Altitude Azimuth Distance (km) Brightness Sun altitude
Rises 01:37:17 0° 347° (NNW) 3,619 8.0 -14.4°
Reaches altitude 10° 01:39:47 10° 347° (NNW) 2,671 7.2 -14.3°
Maximum altitude 01:45:53 84° 260° (W) 957 3.9 -14.0°
Enters shadow 01:51:06 15° 173° (S) 2,338 5.5 -13.8°
